Hereford, TX

3:11 PM CDT on April 29, 2017 (GMT -0500)
Hereford Municipal

Weather History for KHRX - April, 2013

Change the Weather History Date:

Wednesday, April 10, 2013

  Actual Average (KCVN) Record (KCVN)
Temperature  
Mean Temperature 33 °F -  
Max Temperature 45 °F 70 °F 90 °F (1972)
Min Temperature 21 °F 38 °F 19 °F (1973)
Degree Days  
Heating Degree Days 32    
Moisture  
Dew Point 8 °F    
Average Humidity 39    
Maximum Humidity 50    
Minimum Humidity 24    
Precipitation  
Precipitation 0.00 in - - ()
Sea Level Pressure  
Sea Level Pressure 30.01 in    
Wind  
Wind Speed 24 mph (North)    
Max Wind Speed 39 mph    
Max Gust Speed 45 mph    
Visibility 10 miles    
Events Thunderstorm    
Averages and records for this station are not official NWS values.
T = Trace of Precipitation, MM = Missing Value Source: NWS Daily Summary

Daily Weather History Graph

Daily Weather History Graph

Search for Another Location

Airport or City:

Trip Planner

Search our weather history database for the weather conditions in past years. The results will help you decide how hot, cold, wet, or windy it might be!

Date:

Astronomy

Apr. 10, 2013 Rise Set
Actual Time 7:23 AM CDT 8:17 PM CDT
Civil Twilight 6:57 AM CDT 8:43 PM CDT
Nautical Twilight 6:27 AM CDT 9:14 PM CDT
Astronomical Twilight 5:55 AM CDT 9:45 PM CDT
Moon 7:22 AM CDT (4/10) 8:53 PM CDT (4/10)
Length of Visible Light 13h 45m
Length of Day
12h 54m
New Moon, 0% of the Moon is Illuminated
Apr 10
New Moon
Apr 18
First Quarter
Apr 25
Full
May 2
Last Quarter
May 9
New

Hourly Weather History & Observations

Time (CDT) Temp. Windchill Dew Point Humidity Pressure Visibility Wind Dir Wind Speed Gust Speed Precip Events Conditions
12:15 AM 27.0 °F 11.3 °F 9.5 °F 48% 29.97 in 5.0 mi North 27.6 mph 36.8 mph N/A   Haze
12:35 AM 26.8 °F 9.1 °F 9.5 °F 48% 29.97 in 7.0 mi North 36.8 mph 42.6 mph N/A   Overcast
12:55 AM 26.4 °F 8.8 °F 9.5 °F 49% 29.93 in 7.0 mi North 35.7 mph 43.7 mph N/A   Overcast
1:15 AM 25.7 °F 8.3 °F 9.3 °F 50% 29.96 in 10.0 mi North 33.4 mph 43.7 mph N/A   Overcast
1:35 AM 25.7 °F 7.2 °F 8.8 °F 49% 29.97 in 10.0 mi North 39.1 mph 44.9 mph N/A   Overcast
1:55 AM 25.3 °F 8.1 °F 8.6 °F 49% 29.98 in 10.0 mi North 32.2 mph 41.4 mph N/A   Overcast
2:15 AM 24.8 °F 6.8 °F 8.1 °F 49% 29.98 in 10.0 mi North 34.5 mph 41.4 mph N/A   Overcast
2:35 AM 24.8 °F 7.6 °F 7.7 °F 48% 29.99 in 10.0 mi North 31.1 mph 41.4 mph N/A   Overcast
2:55 AM 24.8 °F 9.3 °F 7.5 °F 48% 30.00 in 10.0 mi North 24.2 mph 35.7 mph N/A Thunderstorm Overcast
3:15 AM 24.3 °F 7.4 °F 6.8 °F 47% 30.02 in 10.0 mi North 28.8 mph 35.7 mph N/A   Overcast
3:35 AM 23.9 °F 7.5 °F 6.3 °F 47% 30.02 in 10.0 mi North 26.5 mph 34.5 mph N/A   Overcast
3:55 AM 23.9 °F 6.9 °F 5.9 °F 46% 30.03 in 10.0 mi North 28.8 mph 33.4 mph N/A   Overcast
4:15 AM 23.0 °F 6.9 °F 5.7 °F 48% 30.05 in 10.0 mi North 24.2 mph 38.0 mph N/A   Overcast
4:35 AM 23.0 °F 5.4 °F 5.9 °F 48% 30.01 in 10.0 mi North 29.9 mph 38.0 mph N/A   Overcast
4:55 AM 22.8 °F 5.4 °F 5.7 °F 48% 30.02 in 10.0 mi North 28.8 mph 35.7 mph N/A   Overcast
5:15 AM 22.8 °F 5.7 °F 5.9 °F 48% 30.00 in 10.0 mi North 27.6 mph 34.5 mph N/A   Overcast
5:35 AM 22.1 °F 3.9 °F 5.2 °F 48% 29.99 in 10.0 mi North 31.1 mph 38.0 mph N/A   Mostly Cloudy
5:55 AM 21.9 °F 6.5 °F 5.2 °F 49% 30.00 in 10.0 mi North 20.7 mph 33.4 mph N/A   Mostly Cloudy
6:15 AM 21.7 °F 4.3 °F 5.0 °F 49% 30.04 in 10.0 mi North 27.6 mph 34.5 mph N/A   Scattered Clouds
6:35 AM 21.6 °F 5.3 °F 5.2 °F 49% 30.03 in 10.0 mi North 23.0 mph 29.9 mph N/A   Mostly Cloudy
6:55 AM 21.4 °F 6.2 °F 5.0 °F 49% 30.06 in 10.0 mi North 19.6 mph 24.2 mph N/A   Mostly Cloudy
7:15 AM 21.4 °F 7.1 °F 5.2 °F 50% 30.07 in 10.0 mi North 17.3 mph 26.5 mph N/A   Mostly Cloudy
7:35 AM 21.2 °F 5.6 °F 5.0 °F 50% 30.07 in 10.0 mi North 20.7 mph 26.5 mph N/A   Overcast
7:55 AM 21.2 °F 5.2 °F 5.0 °F 50% 30.06 in 10.0 mi North 21.9 mph - N/A   Overcast
8:15 AM 21.7 °F 5.9 °F 5.5 °F 50% 30.06 in 10.0 mi North 21.9 mph 27.6 mph N/A   Overcast
8:35 AM 22.1 °F 6.8 °F 5.4 °F 49% 30.08 in 10.0 mi NNE 20.7 mph 28.8 mph N/A   Overcast
8:55 AM 22.5 °F 6.9 °F 5.4 °F 48% 30.10 in 10.0 mi North 21.9 mph 26.5 mph N/A   Overcast
9:15 AM 23.5 °F 7.6 °F 5.5 °F 46% 30.07 in 10.0 mi North 24.2 mph 28.8 mph N/A   Overcast
9:35 AM 24.6 °F 8.5 °F 5.5 °F 44% 30.07 in 10.0 mi North 26.5 mph 33.4 mph N/A   Overcast
9:55 AM 27.1 °F 11.8 °F 5.5 °F 40% 30.07 in 10.0 mi North 26.5 mph 32.2 mph N/A   Mostly Cloudy
10:15 AM 27.3 °F 13.3 °F 5.7 °F 40% 30.08 in 10.0 mi North 21.9 mph 28.8 mph N/A   Mostly Cloudy
10:35 AM 29.3 °F 14.7 °F 5.7 °F 37% 30.06 in 10.0 mi North 26.5 mph 32.2 mph N/A   Mostly Cloudy
10:55 AM 30.7 °F 16.9 °F 5.5 °F 35% 30.08 in 10.0 mi North 25.3 mph 33.4 mph N/A   Clear
11:15 AM 31.1 °F 18.3 °F 5.0 °F 33% 30.09 in 10.0 mi North 21.9 mph 29.9 mph N/A   Mostly Cloudy
11:35 AM 31.8 °F 19.3 °F 5.0 °F 32% 30.09 in 10.0 mi North 21.9 mph 31.1 mph N/A   Mostly Cloudy
12:15 PM 34.3 °F 22.0 °F 5.7 °F 30% 30.07 in 10.0 mi North 24.2 mph 29.9 mph N/A   Scattered Clouds
12:35 PM 34.9 °F 22.7 °F 5.4 °F 29% 30.06 in 10.0 mi North 24.2 mph 31.1 mph N/A   Scattered Clouds
12:55 PM 35.6 °F 24.2 °F 5.7 °F 29% 30.05 in 10.0 mi North 21.9 mph 31.1 mph N/A   Scattered Clouds
1:15 PM 37.6 °F 27.7 °F 6.4 °F 27% 30.04 in 10.0 mi North 18.4 mph 29.9 mph N/A   Scattered Clouds
1:35 PM 38.3 °F 28.4 °F 6.3 °F 26% 30.03 in 10.0 mi North 19.6 mph - N/A   Clear
1:55 PM 39.7 °F 30.3 °F 6.6 °F 25% 30.02 in 10.0 mi North 19.6 mph 27.6 mph N/A   Clear
2:15 PM 40.6 °F 31.7 °F 7.0 °F 25% 30.02 in 10.0 mi North 18.4 mph 27.6 mph N/A   Clear
2:35 PM 41.9 °F 33.4 °F 6.8 °F 24% 30.01 in 10.0 mi North 18.4 mph 25.3 mph N/A   Clear
2:55 PM 43.0 °F 34.8 °F 8.4 °F 24% 30.00 in 10.0 mi North 18.4 mph 24.2 mph N/A   Clear
3:15 PM 43.5 °F 36.7 °F 9.5 °F 25% 29.99 in 10.0 mi North 13.8 mph 23.0 mph N/A   Clear
3:35 PM 44.6 °F 38.4 °F 10.6 °F 25% 29.98 in 10.0 mi North 12.7 mph 23.0 mph N/A   Clear
3:55 PM 43.9 °F 38.3 °F 10.8 °F 26% 29.97 in 10.0 mi North 10.4 mph 20.7 mph N/A   Clear
4:15 PM 45.0 °F 38.5 °F 11.5 °F 26% 29.96 in 10.0 mi NNW 13.8 mph 20.7 mph N/A   Clear
4:35 PM 44.8 °F 38.0 °F 11.7 °F 26% 29.95 in 10.0 mi North 15.0 mph 23.0 mph N/A   Clear
4:55 PM 45.1 °F 37.9 °F 11.8 °F 26% 29.95 in 10.0 mi North 17.3 mph 23.0 mph N/A   Clear
5:15 PM 44.8 °F 39.0 °F 13.6 °F 28% 29.95 in 10.0 mi North 11.5 mph 21.9 mph N/A   Clear
5:35 PM 44.4 °F 37.9 °F 14.7 °F 30% 29.96 in 10.0 mi North 13.8 mph 20.7 mph N/A   Clear
5:55 PM 44.2 °F 37.6 °F 14.9 °F 31% 29.95 in 10.0 mi North 13.8 mph 19.6 mph N/A   Clear
6:15 PM 44.1 °F 37.1 °F 15.1 °F 31% 29.95 in 10.0 mi NNW 15.0 mph 19.6 mph N/A   Clear
6:35 PM 44.1 °F 37.4 °F 14.7 °F 31% 29.95 in 10.0 mi North 13.8 mph 18.4 mph N/A   Clear
6:55 PM 43.7 °F 37.7 °F 14.0 °F 30% 29.95 in 10.0 mi North 11.5 mph 16.1 mph N/A   Clear
7:15 PM 42.8 °F 38.0 °F 13.8 °F 31% 29.95 in 10.0 mi North 8.1 mph - N/A   Clear
7:35 PM 41.7 °F 36.7 °F 12.9 °F 31% 29.96 in 10.0 mi NNW 8.1 mph - N/A   Clear
7:55 PM 41.9 °F 37.5 °F 12.7 °F 31% 29.96 in 10.0 mi North 6.9 mph - N/A   Clear
8:15 PM 39.9 °F 36.7 °F 12.0 °F 32% 29.98 in 10.0 mi North 4.6 mph - N/A   Clear
8:35 PM 37.9 °F 34.4 °F 11.7 °F 34% 29.98 in 10.0 mi NNE 4.6 mph - N/A   Clear
8:55 PM 37.6 °F 35.1 °F 12.0 °F 35% 29.99 in 10.0 mi NE 3.5 mph - N/A   Clear
9:15 PM 35.8 °F 33.0 °F 11.3 °F 36% 29.99 in 10.0 mi NNE 3.5 mph - N/A   Clear
9:35 PM 34.3 °F 30.2 °F 10.8 °F 38% 30.00 in 10.0 mi NNE 4.6 mph - N/A   Clear
9:55 PM 34.2 °F 29.0 °F 10.6 °F 38% 30.00 in 10.0 mi NNE 5.8 mph - N/A   Clear
10:15 PM 32.2 °F 25.8 °F 9.9 °F 39% 30.00 in 10.0 mi NNE 6.9 mph - N/A   Clear
10:35 PM 31.6 °F 24.4 °F 10.6 °F 42% 30.00 in 10.0 mi NE 8.1 mph - N/A   Clear
10:55 PM 31.1 °F 24.5 °F 9.5 °F 41% 30.01 in 10.0 mi NE 6.9 mph - N/A   Clear
11:15 PM 30.2 °F 22.6 °F 9.9 °F 43% 30.00 in 10.0 mi NE 8.1 mph - N/A   Clear
11:35 PM 29.7 °F 22.0 °F 10.0 °F 44% 30.00 in 10.0 mi ENE 8.1 mph - N/A   Clear
11:55 PM 29.3 °F 22.3 °F 10.4 °F 45% 30.00 in 10.0 mi NE 6.9 mph - N/A   Clear